Time,TemperatureF,DewpointF,PressureIn,WindDirection,WindDirectionDegrees,WindSpeedMPH,WindSpeedGustMPH,Humidity,HourlyPrecipIn,Conditions,Clouds,dailyrainin,SolarRadiationWatts/m^2,SoftwareType,DateUTC
2013-09-14 00:14:00,75.0,73.0,-100.00,SE,140,1.0,-999.0,93,0.00,,,-99.99,0.000000,,2013-09-14 04:14:00,
2013-09-14 00:24:00,74.0,72.0,-100.00,NNW,340,1.0,-999.0,94,0.00,,,-99.99,0.000000,,2013-09-14 04:24:00,
2013-09-14 00:43:00,74.0,72.0,-100.00,SW,224,0.0,-999.0,94,0.00,,,-99.99,0.000000,,2013-09-14 04:43:00,
2013-09-14 00:54:00,74.0,72.0,-100.00,SW,224,0.0,-999.0,94,0.00,,,-99.99,0.000000,,2013-09-14 04:54:00,
2013-09-14 01:03:00,74.0,72.0,-100.00,SW,224,0.0,-999.0,94,0.00,,,-99.99,0.000000,,2013-09-14 05:03:00,
2013-09-14 01:13:00,74.0,72.0,-100.00,SW,224,0.0,-999.0,94,0.00,,,-99.99,0.000000,,2013-09-14 05:13:00,
2013-09-14 02:42:00,73.0,72.0,-100.00,SSW,210,1.0,-999.0,97,0.00,,,-99.99,0.000000,,2013-09-14 06:42:00,
2013-09-14 02:52:00,73.0,72.0,-100.00,SSE,161,1.0,-999.0,97,0.00,,,-99.99,0.000000,,2013-09-14 06:52:00,
2013-09-14 03:12:00,72.0,72.0,-100.00,SW,231,1.0,-999.0,97,0.00,,,-99.99,0.000000,,2013-09-14 07:12:00,
2013-09-14 03:22:00,72.0,72.0,-100.00,WNW,285,1.0,-999.0,97,0.00,,,-99.99,0.000000,,2013-09-14 07:22:00,
2013-09-14 03:42:00,72.0,72.0,-100.00,NNE,33,1.0,-999.0,97,0.00,,,-99.99,0.000000,,2013-09-14 07:42:00,
2013-09-14 03:52:00,72.0,71.0,-100.00,SSW,203,2.0,-999.0,97,0.00,,,-99.99,0.000000,,2013-09-14 07:52:00,
2013-09-14 04:12:00,72.0,71.0,-100.00,SSE,165,1.0,-999.0,98,0.00,,,-99.99,0.000000,,2013-09-14 08:12:00,
2013-09-14 04:22:00,72.0,71.0,-100.00,WSW,255,1.0,-999.0,98,0.00,,,-99.99,0.000000,,2013-09-14 08:22:00,
2013-09-14 04:42:00,72.0,71.0,-100.00,East,90,0.0,-999.0,98,0.00,,,-99.99,0.000000,,2013-09-14 08:42:00,
2013-09-14 04:52:00,72.0,71.0,-100.00,SE,145,1.0,-999.0,98,0.00,,,-99.99,0.000000,,2013-09-14 08:52:00,
2013-09-14 05:12:00,72.0,71.0,-100.00,South,180,0.0,-999.0,98,0.00,,,-99.99,0.000000,,2013-09-14 09:12:00,
2013-09-14 05:22:00,71.0,71.0,-100.00,NE,55,0.0,-999.0,98,0.00,,,-99.99,0.000000,,2013-09-14 09:22:00,
2013-09-14 05:43:00,71.0,71.0,-100.00,WSW,258,0.0,-999.0,98,0.00,,,-99.99,0.000000,,2013-09-14 09:43:00,
2013-09-14 05:54:00,71.0,70.0,-100.00,SE,139,0.0,-999.0,98,0.00,,,-99.99,0.000000,,2013-09-14 09:54:00,
2013-09-14 06:13:00,71.0,70.0,-100.00,South,183,1.0,-999.0,98,0.00,,,-99.99,0.000000,,2013-09-14 10:13:00,
2013-09-14 06:23:00,71.0,70.0,-100.00,WSW,255,1.0,-999.0,99,0.00,,,-99.99,0.000000,,2013-09-14 10:23:00,
2013-09-14 06:42:00,71.0,70.0,-100.00,West,280,1.0,-999.0,99,0.00,,,-99.99,0.000000,,2013-09-14 10:42:00,
2013-09-14 06:53:00,70.0,70.0,-100.00,SW,236,2.0,-999.0,99,0.00,,,-99.99,0.000000,,2013-09-14 10:53:00,
2013-09-14 07:12:00,71.0,71.0,-100.00,West,280,2.0,-999.0,99,0.00,,,-99.99,0.000000,,2013-09-14 11:12:00,
2013-09-14 07:22:00,71.0,70.0,-100.00,WSW,241,2.0,-999.0,99,0.00,,,-99.99,0.000000,,2013-09-14 11:22:00,
2013-09-14 07:42:00,71.0,71.0,-100.00,SW,234,2.0,-999.0,99,0.00,,,-99.99,1.600000,,2013-09-14 11:42:00,
2013-09-14 07:52:00,71.0,71.0,-100.00,WSW,243,1.0,-999.0,99,0.00,,,-99.99,10.200000,,2013-09-14 11:52:00,
2013-09-14 08:12:00,71.0,71.0,-100.00,West,272,1.0,-999.0,99,0.00,,,-99.99,40.799999,,2013-09-14 12:12:00,
2013-09-14 08:22:00,73.0,73.0,-100.00,WNW,294,0.0,-999.0,99,0.00,,,-99.99,87.699997,,2013-09-14 12:22:00,
2013-09-14 08:42:00,74.0,74.0,-100.00,NW,308,1.0,-999.0,99,0.00,,,-99.99,140.600006,,2013-09-14 12:42:00,
2013-09-14 08:52:00,75.0,74.0,-100.00,West,261,1.0,-999.0,98,0.00,,,-99.99,191.699997,,2013-09-14 12:52:00,
2013-09-14 09:12:00,76.0,76.0,-100.00,WSW,257,2.0,-999.0,98,0.00,,,-99.99,244.300003,,2013-09-14 13:12:00,
2013-09-14 09:21:00,77.0,77.0,-100.00,West,261,2.0,-999.0,98,0.00,,,-99.99,278.000000,,2013-09-14 13:21:00,
2013-09-14 09:42:00,78.0,78.0,-100.00,WNW,289,2.0,-999.0,97,0.00,,,-99.99,238.199997,,2013-09-14 13:42:00,
2013-09-14 09:52:00,80.0,79.0,-100.00,West,276,1.0,-999.0,97,0.00,,,-99.99,360.200012,,2013-09-14 13:52:00,
2013-09-14 10:12:00,81.0,80.0,-100.00,NNW,330,2.0,-999.0,95,0.00,,,-99.99,400.000000,,2013-09-14 14:12:00,
2013-09-14 10:22:00,82.0,79.0,-100.00,NNW,346,4.0,-999.0,90,0.00,,,-99.99,395.000000,,2013-09-14 14:22:00,
2013-09-14 10:42:00,83.0,78.0,-100.00,NNW,329,4.0,-999.0,83,0.00,,,-99.99,512.400024,,2013-09-14 14:42:00,
2013-09-14 10:52:00,85.0,77.0,-100.00,North,1,4.0,-999.0,77,0.00,,,-99.99,554.599976,,2013-09-14 14:52:00,
2013-09-14 11:11:00,86.0,75.0,-100.00,NNW,344,4.0,-999.0,69,0.00,,,-99.99,574.900024,,2013-09-14 15:11:00,
2013-09-14 11:22:00,86.0,74.0,-100.00,North,355,4.0,-999.0,67,0.00,,,-99.99,655.700012,,2013-09-14 15:22:00,
2013-09-14 11:43:00,87.0,74.0,-100.00,NNE,20,4.0,-999.0,66,0.00,,,-99.99,699.900024,,2013-09-14 15:43:00,
2013-09-14 11:53:00,87.0,74.0,-100.00,WNW,291,4.0,-999.0,64,0.00,,,-99.99,786.000000,,2013-09-14 15:53:00,
2013-09-14 12:14:00,87.0,73.0,-100.00,NNW,333,5.0,-999.0,63,0.00,,,-99.99,390.200012,,2013-09-14 16:14:00,
2013-09-14 12:23:00,87.0,73.0,-100.00,North,353,3.0,-999.0,62,0.00,,,-99.99,799.000000,,2013-09-14 16:23:00,
2013-09-14 12:44:00,89.0,73.0,-100.00,NNE,28,3.0,-999.0,59,0.00,,,-99.99,831.000000,,2013-09-14 16:44:00,
2013-09-14 12:54:00,89.0,73.0,-100.00,NW,314,3.0,-999.0,59,0.00,,,-99.99,590.299988,,2013-09-14 16:54:00,
2013-09-14 13:11:00,89.0,73.0,-100.00,WSW,244,4.0,-999.0,60,0.00,,,-99.99,825.000000,,2013-09-14 17:11:00,
2013-09-14 13:24:00,90.0,74.0,-100.00,North,353,3.0,-999.0,59,0.00,,,-99.99,747.000000,,2013-09-14 17:24:00,
2013-09-14 13:43:00,90.0,74.0,-100.00,WSW,254,4.0,-999.0,59,0.00,,,-99.99,896.000000,,2013-09-14 17:43:00,
2013-09-14 13:54:00,91.0,73.0,-100.00,SSW,200,3.0,-999.0,56,0.00,,,-99.99,849.000000,,2013-09-14 17:54:00,
2013-09-14 14:12:00,90.0,73.0,-100.00,SE,130,3.0,-999.0,57,0.00,,,-99.99,527.099976,,2013-09-14 18:12:00,
2013-09-14 14:22:00,90.0,73.0,-100.00,North,355,4.0,-999.0,57,0.00,,,-99.99,279.500000,,2013-09-14 18:22:00,
2013-09-14 14:43:00,91.0,73.0,-100.00,WSW,252,3.0,-999.0,56,0.00,,,-99.99,765.000000,,2013-09-14 18:43:00,
2013-09-14 14:52:00,92.0,72.0,-100.00,NE,34,3.0,-999.0,53,0.00,,,-99.99,752.000000,,2013-09-14 18:52:00,
2013-09-14 15:11:00,90.0,72.0,-100.00,East,95,3.0,-999.0,54,0.00,,,-99.99,317.700012,,2013-09-14 19:11:00,
2013-09-14 15:22:00,90.0,72.0,-100.00,North,355,4.0,-999.0,55,0.00,,,-99.99,326.799988,,2013-09-14 19:22:00,
2013-09-14 15:42:00,90.0,73.0,-100.00,ENE,64,4.0,-999.0,57,0.00,,,-99.99,345.200012,,2013-09-14 19:42:00,
2013-09-14 15:52:00,89.0,73.0,-100.00,ENE,74,3.0,-999.0,58,0.00,,,-99.99,247.300003,,2013-09-14 19:52:00,
2013-09-14 16:12:00,90.0,73.0,-100.00,East,82,4.0,-999.0,58,0.00,,,-99.99,473.399994,,2013-09-14 20:12:00,
2013-09-14 16:22:00,91.0,73.0,-100.00,ESE,111,2.0,-999.0,55,0.00,,,-99.99,581.299988,,2013-09-14 20:22:00,
2013-09-14 16:42:00,92.0,73.0,-100.00,East,91,3.0,-999.0,54,0.00,,,-99.99,616.900024,,2013-09-14 20:42:00,
2013-09-14 16:52:00,92.0,72.0,-100.00,NNE,29,3.0,-999.0,52,0.00,,,-99.99,538.500000,,2013-09-14 20:52:00,
2013-09-14 17:12:00,93.0,72.0,-100.00,ENE,69,2.0,-999.0,50,0.00,,,-99.99,510.600006,,2013-09-14 21:12:00,
2013-09-14 17:22:00,91.0,72.0,-100.00,ESE,109,2.0,-999.0,52,0.00,,,-99.99,330.000000,,2013-09-14 21:22:00,
2013-09-14 17:44:00,92.0,72.0,-100.00,NE,38,2.0,-999.0,52,0.00,,,-99.99,408.799988,,2013-09-14 21:44:00,
2013-09-14 17:54:00,92.0,72.0,-100.00,NNW,344,3.0,-999.0,50,0.00,,,-99.99,321.899994,,2013-09-14 21:54:00,
2013-09-14 18:13:00,92.0,71.0,-100.00,ENE,59,2.0,-999.0,51,0.00,,,-99.99,220.300003,,2013-09-14 22:13:00,
2013-09-14 18:24:00,90.0,72.0,-100.00,NE,46,4.0,-999.0,54,0.00,,,-99.99,173.800003,,2013-09-14 22:24:00,
2013-09-14 18:42:00,90.0,73.0,-100.00,NE,48,4.0,-999.0,57,0.00,,,-99.99,210.899994,,2013-09-14 22:42:00,
2013-09-14 18:53:00,89.0,72.0,-100.00,NE,46,3.0,-999.0,57,0.00,,,-99.99,64.800003,,2013-09-14 22:53:00,
2013-09-14 19:12:00,88.0,72.0,-100.00,NNE,25,2.0,-999.0,60,0.00,,,-99.99,62.500000,,2013-09-14 23:12:00,
2013-09-14 19:23:00,87.0,73.0,-100.00,NNE,20,3.0,-999.0,63,0.00,,,-99.99,47.000000,,2013-09-14 23:23:00,
2013-09-14 19:42:00,86.0,74.0,-100.00,NNE,32,4.0,-999.0,67,0.00,,,-99.99,33.400002,,2013-09-14 23:42:00,
2013-09-14 19:53:00,85.0,74.0,-100.00,NE,37,3.0,-999.0,70,0.00,,,-99.99,14.100000,,2013-09-14 23:53:00,
2013-09-14 20:12:00,84.0,74.0,-100.00,NE,52,3.0,-999.0,72,0.00,,,-99.99,5.300000,,2013-09-15 00:12:00,
2013-09-14 20:22:00,84.0,75.0,-100.00,ENE,69,6.0,-999.0,74,0.00,,,-99.99,0.100000,,2013-09-15 00:22:00,
2013-09-14 20:42:00,83.0,73.0,-100.00,ESE,103,7.0,-999.0,71,0.00,,,-99.99,0.000000,,2013-09-15 00:42:00,
2013-09-14 20:53:00,83.0,73.0,-100.00,East,98,5.0,-999.0,71,0.00,,,-99.99,0.000000,,2013-09-15 00:53:00,
2013-09-14 21:11:00,82.0,73.0,-100.00,East,99,3.0,-999.0,73,0.00,,,-99.99,0.000000,,2013-09-15 01:11:00,
2013-09-14 21:22:00,81.0,73.0,-100.00,ESE,123,3.0,-999.0,75,0.00,,,-99.99,0.000000,,2013-09-15 01:22:00,
2013-09-14 21:42:00,81.0,73.0,-100.00,ESE,121,2.0,-999.0,78,0.00,,,-99.99,0.000000,,2013-09-15 01:42:00,
2013-09-14 21:52:00,80.0,74.0,-100.00,ESE,122,2.0,-999.0,80,0.00,,,-99.99,0.000000,,2013-09-15 01:52:00,
2013-09-14 22:12:00,79.0,74.0,-100.00,SE,133,3.0,-999.0,83,0.00,,,-99.99,0.000000,,2013-09-15 02:12:00,
2013-09-14 22:22:00,79.0,74.0,-100.00,ESE,115,2.0,-999.0,84,0.00,,,-99.99,0.000000,,2013-09-15 02:22:00,
2013-09-14 22:42:00,79.0,74.0,-100.00,SSW,200,2.0,-999.0,85,0.00,,,-99.99,0.000000,,2013-09-15 02:42:00,
2013-09-14 22:52:00,79.0,74.0,-100.00,WSW,239,3.0,-999.0,85,0.00,,,-99.99,0.000000,,2013-09-15 02:52:00,
2013-09-14 23:11:00,79.0,75.0,-100.00,SW,229,3.0,-999.0,85,0.00,,,-99.99,0.000000,,2013-09-15 03:11:00,
2013-09-14 23:22:00,79.0,75.0,-100.00,WSW,254,4.0,-999.0,86,0.00,,,-99.99,0.000000,,2013-09-15 03:22:00,
2013-09-14 23:44:00,79.0,75.0,-100.00,WSW,253,3.0,-999.0,87,0.00,,,-99.99,0.000000,,2013-09-15 03:44:00,
2013-09-14 23:55:00,78.0,74.0,-100.00,WSW,257,3.0,-999.0,88,0.00,,,-99.99,0.000000,,2013-09-15 03:55:00,